Satellite-Ground Cal/Val Site Overpasses Predictions

Prediction of Satellite NPP Overpassing Cal/Val Site: Antarctic Dome C

Ground Cal/Val Site Location: Latitude: -75.10, Longitude: 123.35; Satellite-Ground Site NADIR distance within 100 km.

Table of predicted overpasses for the next 14.0 days since TLE Epoch: 9/1/2017
Interval Starting Time Ending Time Minimum Distance Time Minimum Distance (km)
1 09/02/2017 07:25:29 09/02/2017 07:25:56 09/02/2017 07:25:43 38.48
2 09/04/2017 15:07:57 09/04/2017 15:08:04 09/04/2017 15:08:01 96.61
3 09/05/2017 14:48:57 09/05/2017 14:49:26 09/05/2017 14:49:12 14.57
4 09/07/2017 07:31:48 09/07/2017 07:32:17 09/07/2017 07:32:02 3.58
5 09/10/2017 14:55:18 09/10/2017 14:55:47 09/10/2017 14:55:32 22.13
6 09/11/2017 14:36:36 09/11/2017 14:36:51 09/11/2017 14:36:43 84.84
7 09/12/2017 07:38:09 09/12/2017 07:38:36 09/12/2017 07:38:23 34.69


NCC Satellite Cal/Val Overpasses Prediction Service
